[[{"header":{"parameterUnit":"m.s-1","parameterCategory":1,"la1":30.2991,"la2":30.254,"lo1":-89.0895,"lo2":-89.0444,"dy":0.0017,"dx":0.0017,"nx":28,"ny":28,"refTime":"2024-10-08T21:00:00:Z","depth":0,"parameterNumber":2,"parameterNumberName":"U-component_of_WINDS"},"data":[0,0,0,0,0,0,0,0,0,0,0,0,0,0,0,0,0,0,0,0,0,0,0,0,0,0,0,0,0,0,0,0,0,0,0,0,0,0,0,0,0,0,0,0,0,0,0,0,0,0,0,0,0,0,0,0,0,0,-2.4094,-2.4095,0,-2.4202,-2.4203,-2.4205,-2.4221,-2.422,-2.4219,-2.4218,-2.4329,-2.4333,-2.4337,0,0,0,0,0,0,0,0,0,0,0,0,0,-2.3901,-2.3905,-2.4094,-2.4095,-2.4097,-2.4202,-2.4204,-2.4205,-2.4221,-2.422,-2.4219,-2.4218,-2.4328,-2.4332,-2.4337,0,0,0,0,0,0,0,0,0,0,0,0,0,-2.3995,-2.3906,-2.4094,-2.4117,-2.4121,-2.4202,-2.4204,-2.4205,-2.4221,-2.422,-2.4218,-2.4217,-2.4326,-2.4332,-2.4338,-2.4403,0,0,-2.4355,-2.4358,0,0,0,0,0,0,0,0,-2.3989,-2.4002,-2.4113,-2.4116,-2.412,-2.4197,-2.4176,-2.4272,-2.4222,-2.4183,-2.4218,-2.4216,-2.4286,-2.4295,-2.4319,-2.4408,-2.4413,-2.4356,-2.4359,-2.4362,-2.4364,0,0,0,0,0,0,0,-2.3983,-2.3997,-2.4137,-2.4114,-2.4118,-2.4123,-2.4134,-2.4194,-2.4242,-2.4186,-2.4188,-2.42,-2.4288,-2.4313,-2.4321,-2.4414,-2.4356,-2.4361,-2.4364,-2.4367,-2.4563,-2.4565,0,0,0,0,0,0,-2.3972,-2.3992,-2.4133,-2.414,-2.405,-2.4127,-2.414,-2.4173,-2.4241,-2.425,-2.4201,-2.4201,-2.4304,-2.4315,-2.4325,-2.4407,-2.4362,-2.4367,-2.4371,-2.4561,-2.4564,-2.4565,0,0,0,0,0,0,-2.3968,-2.3985,-2.4129,-2.4066,-2.4085,-2.4132,-2.4169,-2.4176,-2.4202,-2.4252,-2.4261,-2.4219,-2.4303,-2.4317,-2.4384,-2.4411,-2.437,-2.4375,-2.4559,-2.4562,-2.4565,-2.457,0,0,0,0,0,0,-2.3962,-2.3983,-2.4008,-2.4067,-2.4088,-2.4185,-2.4171,-2.4179,-2.4212,-2.4212,-2.4271,-2.4279,-2.4303,-2.4375,-2.4389,-2.4418,-2.438,-2.4557,-2.4561,-2.4564,-2.4568,-2.4572,-2.4577,0,0,0,0,0,-2.3955,-2.4005,-2.4009,-2.4026,-2.4121,-2.4187,-2.4199,-2.4226,-2.4214,-2.424,-2.4272,-2.4277,-2.4405,-2.4381,-2.4398,-2.4429,-2.4556,-2.456,-2.4563,-2.4566,-2.4571,-2.4576,0,0,0,0,0,0,-2.3949,-2.4013,-2.4019,-2.4089,-2.4132,-2.4189,-2.4223,-2.4231,-2.4279,-2.4277,-2.4307,-2.4321,-2.4386,-2.4414,-2.4386,-2.4496,-2.4479,-2.4487,-2.4475,-2.4482,-2.4486,-2.4478,-2.4385,0,0,0,0,0,-2.3956,-2.4004,-2.4058,-2.4115,-2.4136,-2.4176,-2.4205,-2.4222,-2.4268,-2.4287,-2.4324,-2.4369,-2.4419,-2.4452,-2.4501,-2.4571,-2.4585,-2.4601,-2.4605,-2.4609,-2.4615,-2.4655,-2.4663,-2.4578,-2.4578,-2.4578,0,0,-2.397,-2.4011,-2.404,-2.4114,-2.415,-2.4199,-2.4191,-2.4244,-2.4281,-2.4295,-2.436,-2.4389,-2.444,-2.4509,-2.4542,-2.4535,-2.4641,-2.4614,-2.4616,-2.4621,-2.466,-2.4668,-2.4675,-2.4581,-2.458,-2.458,0,0,-2.4022,-2.4058,-2.411,-2.4145,-2.4199,-2.4225,-2.4237,-2.4294,-2.4313,-2.4379,-2.4391,-2.4435,-2.4521,-2.4558,-2.4588,-2.4653,-2.466,-2.4668,-2.4692,-2.4731,-2.4738,-2.4744,-2.4768,-2.4776,-2.4674,-2.4674,-2.4674,0,-2.4034,-2.4109,-2.4135,-2.4188,-2.422,-2.4235,-2.4288,-2.4321,-2.4388,-2.441,-2.4401,-2.451,-2.4545,-2.4624,-2.4639,-2.4663,-2.4678,-2.4662,-2.4734,-2.4741,-2.4747,-2.4771,-2.478,-2.4675,-2.4675,-2.4675,-2.4674,0,-2.4121,-2.4172,-2.4208,-2.4272,-2.4309,-2.4361,-2.4395,-2.4429,-2.4442,-2.4469,-2.4536,-2.4579,-2.4638,-2.4657,-2.467,-2.4737,-2.4732,-2.4728,-2.4713,-2.4755,-2.4778,-2.4787,-2.4676,-2.4676,-2.4675,-2.4675,0,0,-2.4173,-2.4251,-2.4264,-2.4293,-2.4353,-2.4394,-2.4447,-2.4504,-2.4533,-2.4578,-2.4624,-2.4696,-2.4693,-2.4727,-2.4744,-2.4778,-2.4829,-2.4771,-2.4773,-2.4781,-2.4906,-2.4909,-2.4919,-2.4833,-2.4835,-2.4836,-2.4902,0,-2.4233,-2.4328,-2.4353,-2.4434,-2.4482,-2.4496,-2.4543,-2.4584,-2.4611,-2.4656,-2.4685,-2.4736,-2.4728,-2.4749,-2.4783,-2.4815,-2.4854,-2.4811,-2.4876,-2.4878,-2.4864,-2.4931,-2.4934,-2.4995,-2.4911,-2.4913,-2.4914,0,-2.4316,-2.4363,-2.4449,-2.4503,-2.4524,-2.4565,-2.462,-2.4663,-2.471,-2.4727,-2.4765,-2.4779,-2.4835,-2.4815,-2.4893,-2.4863,-2.4891,-2.4911,-2.4914,-2.4922,-2.49,-2.4942,-2.5014,-2.5024,-2.4928,-2.4927,-2.4926,0,-2.4347,-2.4432,-2.4494,-2.4519,-2.4583,-2.4612,-2.464,-2.4687,-2.4719,-2.4767,-2.4789,-2.4842,-2.4871,-2.4912,-2.494,-2.4923,-2.5016,-2.4999,-2.5032,-2.5032,-2.5053,-2.5051,-2.5132,-2.5068,-2.5068,-2.5068,-2.5068,0,-2.4412,-2.4464,-2.4509,-2.4548,-2.4606,-2.4635,-2.4692,-2.4721,-2.4762,-2.4806,-2.4821,-2.4863,-2.4897,-2.4943,-2.4965,-2.5027,-2.504,-2.5055,-2.5061,-2.5055,-2.5053,-2.5075,-2.5072,-2.507,-2.507,-2.5069,-2.5069,0,-2.4457,-2.4489,-2.4558,-2.4614,-2.4629,-2.467,-2.4717,-2.4755,-2.4782,-2.4838,-2.4853,-2.4894,-2.4949,-2.4981,-2.5051,-2.5066,-2.5134,-2.5137,-2.5118,-2.5121,-2.5154,-2.5151,-2.5252,-2.5267,-2.5192,-2.5193,-2.5194,0,-2.4497,-2.4538,-2.4597,-2.4628,-2.4657,-2.4706,-2.474,-2.4769,-2.4803,-2.4861,-2.4892,-2.4948,-2.4994,-2.5082,-2.5118,-2.5172,-2.5177,-2.5209,-2.5185,-2.5178,-2.5179,-2.5177,-2.5181,-2.5213,-2.5214,-2.5214,-2.5215,0,-2.4566,-2.458,-2.4627,-2.4681,-2.4721,-2.4764,-2.4807,-2.4832,-2.4868,-2.4906,-2.4962,-2.4998,-2.5069,-2.5125,-2.5181,-2.521,-2.5219,-2.5222,-2.5233,-2.5228,-2.5216,-2.5224,-2.5131,-2.522,-2.5219,-2.5219,-2.5219,-2.5218,-2.4611,-2.4648,-2.4696,-2.4748,-2.4784,-2.4824,-2.4863,-2.4894,-2.4941,-2.5002,-2.5015,-2.5075,-2.5122,-2.5198,-2.5229,-2.5276,-2.5271,-2.5286,-2.529,-2.5294,-2.5296,-2.5207,-2.5286,-2.5286,-2.5286,-2.5286,-2.5286,0,-2.4681,-2.4713,-2.4761,-2.4821,-2.4863,-2.4866,-2.4914,-2.4949,-2.5001,-2.5044,-2.509,-2.5155,-2.5209,-2.5249,-2.5304,-2.5335,-2.534,-2.5348,-2.5347,-2.5354,-2.5297,-2.5282,-2.5343,-2.5343,-2.5343,-2.5343,-2.5343,-2.5343,-2.4723,-2.4786,-2.4805,-2.4886,-2.4917,-2.4976,-2.5003,-2.504,-2.5074,-2.5146,-2.5191,-2.5217,-2.5259,-2.5318,-2.5368,-2.5378,-2.5398,-2.5406,-2.5418,-2.5364,-2.5358,-2.5352,-2.5339,-2.541,-2.541,-2.5471,-2.5471,-2.5472]},{"header":{"parameterUnit":"m.s-1","parameterCategory":1,"la1":30.2991,"la2":30.254,"lo1":-89.0895,"lo2":-89.0444,"dy":0.0017,"dx":0.0017,"nx":28,"ny":28,"refTime":"2024-10-08T21:00:00:Z","depth":0,"parameterNumber":3,"parameterNumberName":"V-component_of_WINDS"},"data":[0,0,0,0,0,0,0,0,0,0,0,0,0,0,0,0,0,0,0,0,0,0,0,0,0,0,0,0,0,0,0,0,0,0,0,0,0,0,0,0,0,0,0,0,0,0,0,0,0,0,0,0,0,0,0,0,0,0,-5.374,-5.3741,0,-5.3814,-5.3814,-5.3815,-5.3772,-5.377,-5.3768,-5.3766,-5.3836,-5.3839,-5.3843,0,0,0,0,0,0,0,0,0,0,0,0,0,-5.3558,-5.3562,-5.374,-5.3741,-5.3742,-5.3813,-5.3814,-5.3815,-5.3773,-5.377,-5.3768,-5.3765,-5.3834,-5.3839,-5.3843,0,0,0,0,0,0,0,0,0,0,0,0,0,-5.3635,-5.3563,-5.374,-5.373,-5.3729,-5.3813,-5.3814,-5.3816,-5.3773,-5.377,-5.3767,-5.3764,-5.3833,-5.3838,-5.3844,-5.3941,0,0,-5.3861,-5.3864,0,0,0,0,0,0,0,0,-5.3631,-5.3642,-5.373,-5.373,-5.373,-5.3781,-5.3776,-5.3857,-5.3774,-5.3756,-5.3766,-5.3763,-5.382,-5.3826,-5.3846,-5.3944,-5.3947,-5.3862,-5.3865,-5.3868,-5.3869,0,0,0,0,0,0,0,-5.3625,-5.3638,-5.3769,-5.3731,-5.3732,-5.3719,-5.3727,-5.3791,-5.3804,-5.3758,-5.3755,-5.3764,-5.3819,-5.3841,-5.3848,-5.3948,-5.3862,-5.3867,-5.387,-5.3872,-5.4129,-5.4132,0,0,0,0,0,0,-5.3622,-5.3634,-5.3767,-5.3771,-5.3672,-5.3725,-5.3734,-5.3768,-5.3803,-5.3806,-5.3767,-5.3762,-5.3833,-5.3841,-5.385,-5.3967,-5.3868,-5.3873,-5.3876,-5.4126,-5.413,-5.4134,0,0,0,0,0,0,-5.3618,-5.3634,-5.3764,-5.3702,-5.3718,-5.3732,-5.377,-5.3771,-5.3793,-5.3811,-5.3812,-5.3788,-5.3831,-5.3842,-5.3919,-5.3968,-5.3875,-5.3881,-5.4122,-5.4127,-5.4132,-5.42,0,0,0,0,0,0,-5.3613,-5.3633,-5.3671,-5.3703,-5.3721,-5.3833,-5.3773,-5.3774,-5.3803,-5.3798,-5.383,-5.3833,-5.3829,-5.3911,-5.3925,-5.3974,-5.3885,-5.4117,-5.4124,-5.413,-5.4193,-5.4207,-5.4218,0,0,0,0,0,-5.3606,-5.3686,-5.3673,-5.3689,-5.3769,-5.3836,-5.3846,-5.3843,-5.3808,-5.3845,-5.3857,-5.3832,-5.3961,-5.3919,-5.3934,-5.3986,-5.4114,-5.4122,-5.413,-5.4188,-5.4204,-5.4218,0,0,0,0,0,0,-5.3656,-5.369,-5.3676,-5.3768,-5.38,-5.3829,-5.3876,-5.386,-5.3901,-5.3894,-5.3885,-5.3893,-5.3974,-5.3987,-5.3941,-5.4082,-5.4032,-5.4043,-5.4071,-5.4086,-5.4099,-5.4094,-5.389,0,0,0,0,0,-5.3678,-5.3732,-5.3757,-5.3836,-5.3853,-5.3862,-5.3891,-5.3886,-5.3918,-5.393,-5.3947,-5.3977,-5.4025,-5.4056,-5.41,-5.4195,-5.4201,-5.4238,-5.4251,-5.4261,-5.4271,-5.4322,-5.4339,-5.4159,-5.4159,-5.4159,0,0,-5.3723,-5.3748,-5.3782,-5.3847,-5.3871,-5.3925,-5.3874,-5.3933,-5.3973,-5.3938,-5.4013,-5.4027,-5.406,-5.4146,-5.4185,-5.416,-5.4322,-5.4271,-5.4279,-5.4283,-5.4332,-5.4349,-5.4364,-5.4164,-5.4163,-5.4162,0,0,-5.3834,-5.3859,-5.3928,-5.3954,-5.3991,-5.3997,-5.4014,-5.4046,-5.4054,-5.413,-5.4105,-5.4151,-5.4233,-5.4258,-5.4282,-5.4404,-5.4382,-5.4418,-5.4483,-5.4534,-5.4548,-5.456,-5.4605,-5.4621,-5.4427,-5.4428,-5.4428,0,-5.3885,-5.3968,-5.3965,-5.4027,-5.4056,-5.403,-5.4099,-5.4123,-5.4173,-5.4193,-5.4165,-5.4268,-5.4288,-5.4381,-5.4411,-5.443,-5.4448,-5.4414,-5.4546,-5.4559,-5.4571,-5.4613,-5.4629,-5.4432,-5.4431,-5.4431,-5.4431,0,-5.403,-5.4087,-5.4138,-5.419,-5.4224,-5.429,-5.4295,-5.433,-5.4322,-5.433,-5.4407,-5.4431,-5.448,-5.4501,-5.4492,-5.4593,-5.4577,-5.4548,-5.4497,-5.4592,-5.4632,-5.4648,-5.4438,-5.4436,-5.4435,-5.4434,0,0,-5.4173,-5.4224,-5.4243,-5.4266,-5.4307,-5.435,-5.4414,-5.4465,-5.4495,-5.453,-5.4583,-5.4654,-5.4628,-5.4654,-5.4648,-5.4692,-5.4788,-5.4658,-5.4659,-5.4682,-5.4901,-5.4924,-5.4942,-5.4774,-5.4777,-5.478,-5.4899,0,-5.4288,-5.4402,-5.4401,-5.4506,-5.456,-5.4536,-5.4591,-5.4621,-5.4631,-5.4676,-5.4685,-5.4736,-5.4698,-5.4714,-5.4756,-5.4768,-5.4832,-5.4759,-5.4823,-5.4825,-5.4817,-5.4963,-5.4986,-5.5098,-5.4914,-5.4917,-5.4918,0,-5.4436,-5.448,-5.4591,-5.4625,-5.4647,-5.4698,-5.4744,-5.4788,-5.4821,-5.4825,-5.4856,-5.4843,-5.4907,-5.4854,-5.4941,-5.4891,-5.4917,-5.4927,-5.4931,-5.4937,-5.4878,-5.4974,-5.5133,-5.515,-5.4943,-5.4941,-5.4939,0,-5.4532,-5.4617,-5.4695,-5.4716,-5.4757,-5.4793,-5.4812,-5.4842,-5.4873,-5.4913,-5.4933,-5.4979,-5.5004,-5.504,-5.5039,-5.5001,-5.5128,-5.5075,-5.5132,-5.5133,-5.5161,-5.5159,-5.5327,-5.5176,-5.5176,-5.5175,-5.5175,0,-5.466,-5.4729,-5.4739,-5.4787,-5.4864,-5.4861,-5.4936,-5.4951,-5.4979,-5.5028,-5.5009,-5.5055,-5.5052,-5.5098,-5.5098,-5.5171,-5.5182,-5.5186,-5.5185,-5.5188,-5.5188,-5.5206,-5.5198,-5.518,-5.5179,-5.5178,-5.5177,0,-5.478,-5.4789,-5.4873,-5.4906,-5.4916,-5.4971,-5.4998,-5.5043,-5.5052,-5.5114,-5.5129,-5.5141,-5.5195,-5.5198,-5.5259,-5.5259,-5.5348,-5.5338,-5.5338,-5.5337,-5.5395,-5.539,-5.5581,-5.5606,-5.5437,-5.5439,-5.544,0,-5.4862,-5.4915,-5.4955,-5.4988,-5.5009,-5.5062,-5.5094,-5.5093,-5.5127,-5.517,-5.521,-5.5262,-5.5305,-5.5392,-5.5405,-5.5452,-5.5443,-5.5507,-5.545,-5.5452,-5.5446,-5.5443,-5.5449,-5.5518,-5.552,-5.5522,-5.5523,0,-5.5007,-5.5009,-5.5057,-5.5108,-5.5148,-5.5187,-5.5223,-5.525,-5.5254,-5.5293,-5.5349,-5.5382,-5.5446,-5.5498,-5.5544,-5.5561,-5.5543,-5.5541,-5.5557,-5.5561,-5.556,-5.5562,-5.5369,-5.5537,-5.5535,-5.5534,-5.5533,-5.5533,-5.5111,-5.5157,-5.5193,-5.5248,-5.5276,-5.5311,-5.5355,-5.537,-5.5418,-5.5472,-5.5467,-5.553,-5.5561,-5.5622,-5.5643,-5.5691,-5.5669,-5.5691,-5.5697,-5.5703,-5.571,-5.5551,-5.5699,-5.5698,-5.5698,-5.5697,-5.5697,0,-5.5255,-5.5278,-5.5328,-5.5381,-5.5424,-5.5405,-5.5445,-5.5481,-5.5537,-5.557,-5.5612,-5.5677,-5.5728,-5.5746,-5.5795,-5.583,-5.5823,-5.5843,-5.5841,-5.5845,-5.5726,-5.5708,-5.5848,-5.5848,-5.5848,-5.5848,-5.5848,-5.5848,-5.5336,-5.5415,-5.5421,-5.5513,-5.5534,-5.5598,-5.5622,-5.5653,-5.568,-5.5754,-5.5797,-5.5809,-5.5836,-5.5887,-5.5932,-5.5936,-5.5955,-5.5979,-5.598,-5.5869,-5.5853,-5.5839,-5.5822,-5.5983,-5.5984,-5.6095,-5.6096,-5.6097]}]]